Wind_Speed
23 23 23 23 22 21 22 21 21 21 21 21 21 20 20 20 20 19 19 20 20 19 19 18 18 19 19 19 20 20 20 20 21 20 20 20 20 20 19 19 19 19 18 18
25 24 24 25 23 23 23 23 23 23 23 21 21 20 21 21 20 20 19 20 20 19 19 19 19 19 19 19 20 20 20 20 21 20 21 21 21 21 21 21 20 20 20 19
26 26 26 26 25 24 24 24 23 23 23 22 21 21 21 21 21 21 20 20 20 20 19 19 18 19 20 20 20 21 21 21 21 21 21 21 22 22 21 21 21 21 20 20
28 29 29 28 27 25 25 25 24 24 25 25 24 22 22 22 22 21 21 20 20 20 20 20 20 20 20 21 21 21 22 22 21 22 22 21 21 21 22 22 22 22 21 21
29 29 30 29 28 27 26 26 26 26 26 26 24 23 23 22 22 22 22 21 21 21 22 21 21 21 21 22 22 21 21 22 23 22 21 21 21 21 22 22 22 22 22 21
29 29 29 30 29 28 28 29 28 27 27 26 25 24 24 23 23 23 23 22 22 22 22 22 22 22 23 23 22 21 21 22 23 23 22 21 21 21 21 21 21 21 21 22
29 29 30 30 29 28 29 30 28 27 27 27 26 26 26 25 24 24 23 23 23 23 23 22 23 22 23 23 22 22 22 22 22 22 23 23 22 22 22 22 21 21 21 21
29 29 30 30 30 30 30 29 28 27 27 27 27 27 27 26 25 24 24 24 24 24 24 23 23 23 23 24 24 23 23 23 23 23 23 23 23 23 22 22 22 21 21 21
29 29 29 29 29 29 29 29 29 28 28 28 28 27 27 26 25 25 26 25 25 24 24 24 24 24 23 24 24 24 24 23 23 24 24 23 23 23 22 22 22 22 22 21
27 27 27 28 28 28 28 29 29 28 28 28 28 27 27 26 26 26 26 26 26 26 25 25 24 24 23 24 24 24 24 24 24 24 24 24 23 24 24 24 24 23 24 23
27 27 28 28 28 28 28 28 27 28 28 28 28 28 28 28 27 27 27 26 26 26 26 26 25 25 25 25 25 25 25 26 25 25 25 25 25 26 25 25 25 25 24 24
28 27 27 27 27 27 27 27 28 28 28 27 28 28 28 28 28 28 27 27 26 25 26 25 25 25 25 25 25 25 25 26 27 26 26 26 27 27 27 27 27 26 26 25
27 27 27 27 27 27 27 27 27 27 27 28 28 28 28 27 28 28 28 27 27 26 26 26 26 26 26 26 26 26 27 28 28 28 28 28 28 28 28 28 28 28 28 27
27 27 27 28 28 28 28 28 28 28 28 29 29 29 28 28 27 28 28 28 28 27 27 27 27 27 27 27 27 27 28 29 29 29 29 28 28 28 28 29 29 29 30 29
26 27 27 28 29 29 29 29 28 28 28 29 29 30 29 29 29 28 28 28 28 27 27 27 26 27 28 28 27 28 29 29 29 29 29 29 28 29 29 29 29 29 30 30
26 26 27 27 28 28 28 28 28 27 28 28 29 29 30 30 30 29 29 29 29 28 27 27 27 27 27 27 27 27 28 28 28 28 28 27 28 29 30 30 30 29 29 29
25 26 26 26 27 28 28 28 28 28 28 28 28 29 30 30 29 29 28 29 29 28 27 27 27 27 26 26 26 26 26 26 27 28 28 27 27 27 28 28 29 29 29 29
24 25 26 26 27 28 27 28 28 29 28 29 28 28 28 29 29 28 27 27 27 26 26 26 26 26 26 25 25 25 25 25 26 27 28 28 28 27 27 27 27 26 27 27
22 24 25 26 27 27 27 26 26 27 28 28 28 27 27 27 27 27 27 26 26 26 25 25 25 25 25 24 24 24 24 24 25 27 27 27 27 26 26 26 26 26 26 25
21 22 23 23 24 24 25 25 25 25 25 25 26 26 26 26 25 25 25 25 25 24 24 24 24 24 24 23 23 23 24 24 24 25 25 24 24 24 24 25 25 25 25 25
20 20 21 21 22 22 22 22 22 21 22 23 24 24 24 24 23 24 24 24 24 23 23 23 23 23 22 22 22 22 22 23 23 24 24 24 23 23 23 23 24 23 24 24
19 18 18 19 19 20 19 19 19 19 20 21 22 22 23 23 23 23 23 23 23 22 21 22 23 23 22 22 22 22 22 22 22 23 24 24 24 24 24 24 24 23 23 23
17 16 17 17 17 17 17 17 18 18 18 18 19 20 20 21 21 22 22 21 22 21 21 21 22 22 22 22 21 21 21 22 22 22 22 23 23 23 23 23 23 23 23 23
15 15 14 15 15 15 16 17 17 17 17 17 17 17 18 18 19 19 20 19 19 20 20 21 21 21 21 21 21 21 21 20 21 21 22 22 22 23 23 23 23 22 22 22
13 12 12 13 14 14 14 14 15 15 16 15 15 15 16 17 17 17 17 18 19 19 18 18 19 20 20 21 21 21 20 20 21 21 21 21 22 22 22 23 23 23 23 23
12 12 11 11 12 12 12 12 13 14 14 14 14 14 15 16 15 15 15 17 18 19 19 18 18 19 19 20 20 20 20 20 21 22 22 22 22 23 23 23 23 23 24 24
11 11 10 10 11 12 12 12 13 13 12 12 13 13 14 13 14 14 15 16 16 18 18 18 18 19 20 20 20 20 20 20 21 21 21 22 23 23 23 23 23 23 24 24
Wind_Direction
260 262 263 265 265 264 264 266 269 269 271 272 272 273 273 273 275 276 275 275 275 274 271 272 271 268 264 260 256 256 257 257 257 256 253 251 251 251 253 254 253 253 254 255
261 262 264 265 263 264 265 267 269 270 269 271 271 270 269 270 273 275 275 274 274 271 269 270 271 267 263 260 255 254 255 256 255 255 254 253 253 252 254 253 251 253 254 254
262 264 265 264 264 266 267 266 269 270 269 269 270 270 270 269 270 273 273 273 273 272 271 269 269 266 261 259 257 254 254 255 255 255 257 253 252 251 250 251 251 251 253 254
262 263 264 264 265 266 267 268 268 267 267 268 270 271 270 270 271 270 271 273 273 272 271 268 268 266 261 260 259 257 255 255 256 255 257 254 253 252 251 250 250 251 253 255
263 264 265 264 264 266 267 267 265 265 266 267 269 271 270 269 269 270 271 272 273 273 272 270 268 264 261 260 259 257 256 255 256 257 258 256 253 252 251 249 250 250 252 254
262 263 263 264 264 264 266 267 265 265 266 267 270 270 270 268 268 269 270 271 272 272 269 268 267 263 259 260 258 256 258 256 254 256 257 258 256 252 250 250 252 251 253 254
259 261 261 262 264 263 264 265 265 264 264 266 268 270 270 269 268 267 268 269 271 271 268 266 265 263 260 258 256 256 257 257 254 254 255 255 255 253 250 251 251 252 254 255
257 259 259 262 263 262 263 265 266 264 265 267 269 270 270 268 267 267 267 268 269 271 271 267 264 263 260 258 257 256 257 256 254 253 253 252 252 252 253 252 251 252 253 254
255 256 259 261 263 264 264 264 264 265 266 267 268 269 269 267 265 267 269 267 266 268 270 268 265 262 261 260 258 257 257 257 255 252 251 249 249 250 251 251 252 254 255 255
255 256 259 261 262 263 264 264 264 265 265 266 266 266 266 266 266 269 270 267 265 266 269 270 269 263 261 260 258 256 255 255 254 251 249 248 247 248 250 251 252 254 256 256
256 257 258 260 261 261 263 264 263 263 263 264 264 264 265 265 266 268 269 269 266 264 265 267 268 265 262 260 258 255 254 254 254 252 250 248 247 247 249 250 252 254 255 257
257 258 259 259 259 260 261 263 263 262 263 263 264 264 264 265 265 266 267 267 266 265 264 264 263 263 261 259 258 255 254 253 252 251 250 249 248 248 248 249 251 251 254 257
258 259 260 260 260 261 263 264 264 264 264 263 263 264 263 264 264 265 265 265 266 265 264 262 262 262 262 260 258 256 255 254 252 250 249 249 249 249 248 248 249 252 253 255
258 259 260 261 262 263 265 267 266 265 264 264 263 263 263 263 264 264 264 265 265 264 263 262 261 261 261 260 261 258 255 254 253 250 248 248 248 248 248 250 251 252 253 255
259 260 261 262 263 264 266 268 268 267 266 265 264 264 262 262 263 263 263 263 263 263 262 262 261 261 260 261 262 262 259 257 253 249 248 248 249 248 249 251 251 253 254 255
260 261 263 265 265 266 268 269 270 269 268 267 266 265 262 262 262 262 261 261 261 260 260 260 261 261 261 261 261 261 259 256 252 250 248 249 249 249 250 251 252 254 255 255
265 265 266 266 267 268 268 269 270 269 268 267 266 264 262 261 260 259 259 260 260 259 259 261 262 262 261 260 260 260 258 254 252 251 250 249 250 250 251 253 253 255 255 255
268 267 268 268 269 270 269 268 268 269 270 267 265 263 260 258 256 256 258 259 259 258 259 260 260 258 258 259 259 259 257 254 251 250 248 247 248 249 251 254 255 256 257 256
273 271 270 271 271 270 269 269 270 271 270 267 264 261 258 257 255 255 257 259 259 258 258 258 258 256 256 257 257 256 254 252 252 249 246 246 247 250 253 255 256 256 257 257
279 277 274 271 271 272 272 272 271 269 269 268 264 261 258 256 254 254 255 257 258 258 256 256 255 255 254 256 256 254 252 250 248 246 244 245 247 250 253 254 254 255 257 258
284 282 277 272 272 272 273 273 270 268 268 267 265 262 258 255 255 256 254 255 256 256 254 252 252 251 251 252 252 251 251 248 247 246 245 246 248 250 253 254 255 255 258 259
285 281 278 277 274 273 274 272 270 269 268 267 265 262 259 257 255 253 252 252 254 254 252 250 248 247 246 248 248 249 249 248 247 248 248 250 252 254 256 257 257 256 258 261
282 278 275 275 274 273 273 272 270 270 271 269 267 264 258 254 253 252 251 250 252 253 250 247 246 245 245 247 248 248 249 249 249 251 252 253 254 256 258 258 257 256 260 263
281 278 278 276 277 276 273 271 273 273 271 268 266 262 256 252 254 255 254 254 254 251 249 248 248 248 248 248 248 249 249 248 247 249 251 253 254 255 257 258 258 258 261 262
288 287 285 281 279 280 279 276 273 272 271 267 263 260 258 257 258 257 253 250 250 248 247 248 249 249 247 246 247 247 247 249 249 249 250 252 254 256 258 261 262 262 261 261
295 293 290 287 283 281 279 275 275 275 270 267 264 260 260 259 257 255 253 250 249 249 248 249 249 250 250 249 247 248 249 249 250 249 250 253 255 257 259 260 261 262 263 262
296 294 294 289 284 284 283 279 277 273 267 265 263 257 256 259 259 258 255 251 248 248 249 250 250 249 251 252 251 249 251 254 256 254 253 253 255 257 258 259 261 262 262 262
Height
5798 5798 5798 5798 5798 5798 5798 5799 5799 5799 5799 5798 5798 5797 5797 5796 5795 5795 5794 5794 5793 5792 5792 5792 5791 5791 5791 5792 5792 5793 5793 5794 5795 5796 5797 5798 5799 5800 5801 5802 5803 5804 5805 5806
5790 5791 5790 5790 5791 5791 5791 5792 5792 5792 5792 5791 5791 5790 5790 5790 5789 5789 5788 5788 5787 5786 5786 5786 5786 5785 5786 5786 5787 5787 5788 5789 5790 5790 5791 5792 5793 5795 5796 5797 5798 5799 5800 5801
5782 5783 5782 5783 5784 5784 5784 5784 5785 5785 5785 5784 5784 5784 5784 5784 5783 5783 5782 5782 5781 5780 5780 5780 5780 5780 5780 5780 5781 5781 5782 5783 5784 5785 5786 5786 5788 5789 5790 5791 5792 5794 5795 5796
5774 5775 5775 5777 5776 5776 5777 5777 5777 5777 5777 5777 5777 5777 5777 5776 5777 5776 5776 5775 5775 5774 5774 5774 5773 5773 5773 5774 5775 5775 5777 5777 5778 5779 5780 5780 5782 5783 5784 5785 5786 5788 5789 5790
5766 5766 5766 5767 5768 5769 5769 5769 5769 5769 5769 5769 5769 5770 5770 5770 5769 5769 5769 5769 5768 5768 5767 5767 5766 5766 5767 5767 5768 5769 5771 5771 5772 5773 5774 5775 5776 5777 5778 5779 5780 5782 5783 5784
5757 5757 5758 5759 5759 5760 5761 5760 5761 5761 5761 5762 5762 5763 5763 5763 5762 5762 5762 5762 5762 5761 5761 5760 5760 5759 5760 5761 5762 5763 5764 5765 5766 5767 5768 5769 5770 5771 5772 5773 5774 5776 5777 5778
5748 5748 5748 5749 5750 5752 5753 5752 5752 5753 5753 5754 5754 5755 5755 5755 5755 5755 5755 5755 5755 5754 5754 5753 5753 5753 5753 5754 5755 5756 5757 5759 5760 5761 5762 5763 5764 5765 5766 5767 5769 5770 5771 5772
5739 5739 5741 5740 5741 5742 5743 5743 5744 5744 5745 5745 5746 5746 5746 5747 5747 5747 5747 5747 5747 5747 5746 5746 5746 5746 5747 5747 5748 5749 5750 5752 5753 5754 5755 5757 5758 5759 5760 5761 5763 5764 5765 5766
5730 5731 5731 5731 5732 5733 5733 5734 5735 5736 5736 5737 5737 5738 5738 5738 5739 5739 5739 5739 5739 5739 5739 5739 5739 5739 5740 5741 5741 5743 5744 5745 5746 5748 5749 5750 5752 5753 5754 5755 5756 5758 5759 5760
5720 5720 5721 5722 5723 5723 5724 5725 5725 5726 5727 5728 5728 5729 5730 5730 5730 5731 5731 5731 5731 5731 5731 5731 5731 5732 5732 5733 5734 5736 5737 5738 5739 5741 5742 5743 5745 5746 5748 5749 5750 5751 5753 5753
5710 5712 5712 5713 5713 5714 5715 5715 5716 5717 5718 5719 5719 5720 5721 5722 5722 5722 5723 5723 5723 5723 5723 5723 5723 5724 5724 5725 5726 5728 5729 5731 5732 5733 5734 5736 5738 5739 5741 5742 5743 5745 5746 5746
5701 5702 5703 5704 5704 5705 5706 5706 5707 5707 5708 5709 5710 5711 5712 5712 5713 5714 5714 5714 5714 5714 5715 5715 5715 5716 5716 5717 5718 5720 5721 5722 5724 5725 5727 5728 5730 5731 5732 5734 5735 5737 5738 5739
5692 5693 5694 5695 5696 5696 5697 5697 5697 5698 5699 5700 5701 5701 5702 5703 5704 5704 5705 5705 5705 5706 5706 5707 5707 5707 5708 5709 5710 5711 5712 5713 5715 5716 5718 5719 5721 5723 5724 5726 5727 5728 5729 5730
5683 5684 5685 5686 5687 5687 5688 5688 5688 5689 5690 5690 5691 5692 5693 5694 5694 5695 5695 5696 5696 5697 5697 5698 5698 5699 5699 5700 5701 5702 5703 5704 5705 5707 5709 5710 5712 5714 5715 5717 5719 5719 5721 5722
5674 5675 5676 5676 5677 5678 5678 5679 5679 5679 5680 5680 5681 5682 5683 5684 5685 5686 5686 5687 5687 5688 5688 5689 5689 5690 5690 5691 5692 5693 5694 5695 5696 5697 5699 5701 5703 5705 5706 5708 5710 5711 5712 5713
5665 5666 5666 5667 5668 5668 5669 5669 5669 5670 5670 5671 5671 5672 5673 5674 5675 5676 5677 5677 5678 5679 5679 5680 5680 5681 5682 5682 5683 5684 5685 5685 5687 5688 5690 5692 5694 5695 5697 5699 5700 5701 5703 5704
5656 5657 5657 5658 5658 5658 5659 5659 5659 5659 5660 5661 5661 5662 5663 5664 5665 5666 5667 5668 5668 5669 5670 5671 5672 5672 5673 5674 5674 5675 5676 5676 5678 5679 5681 5683 5685 5687 5688 5690 5691 5693 5694 5695
5647 5648 5648 5648 5648 5649 5649 5649 5649 5649 5649 5650 5651 5651 5652 5653 5655 5656 5657 5658 5659 5660 5662 5662 5663 5663 5664 5665 5665 5666 5667 5668 5670 5671 5673 5675 5676 5678 5680 5681 5682 5683 5685 5686
5639 5638 5638 5639 5638 5638 5639 5639 5639 5639 5639 5639 5640 5641 5642 5643 5645 5647 5648 5649 5650 5651 5653 5654 5654 5655 5656 5656 5657 5658 5659 5660 5662 5663 5665 5667 5668 5670 5671 5673 5674 5675 5676 5677
5631 5630 5630 5629 5629 5629 5629 5629 5629 5629 5629 5630 5630 5631 5632 5633 5635 5637 5639 5640 5641 5643 5644 5645 5646 5647 5648 5649 5649 5650 5652 5653 5654 5656 5657 5659 5661 5662 5664 5665 5666 5667 5668 5669
5623 5622 5621 5621 5621 5621 5621 5620 5620 5620 5621 5621 5621 5622 5623 5624 5626 5627 5629 5631 5633 5634 5635 5636 5638 5639 5640 5641 5642 5643 5644 5646 5647 5649 5650 5652 5653 5655 5656 5657 5658 5659 5660 5661
5617 5616 5615 5614 5613 5613 5613 5613 5613 5613 5613 5613 5613 5613 5614 5616 5617 5619 5620 5623 5624 5625 5627 5628 5630 5632 5633 5634 5635 5636 5637 5639 5640 5642 5643 5645 5646 5647 5648 5649 5651 5651 5652 5652
5610 5609 5608 5607 5607 5607 5607 5607 5607 5606 5606 5606 5606 5606 5607 5608 5609 5611 5613 5615 5616 5618 5619 5621 5623 5624 5626 5627 5628 5629 5630 5632 5633 5635 5636 5637 5639 5640 5641 5642 5643 5644 5644 5644
5604 5603 5603 5602 5601 5601 5601 5601 5601 5600 5600 5600 5600 5600 5600 5601 5602 5604 5605 5607 5609 5611 5612 5614 5616 5617 5618 5620 5621 5622 5624 5625 5626 5628 5629 5630 5631 5632 5633 5634 5635 5635 5636 5636
5599 5598 5598 5597 5596 5596 5596 5595 5594 5594 5593 5593 5594 5594 5594 5595 5596 5597 5599 5600 5602 5604 5605 5607 5609 5610 5611 5613 5614 5616 5617 5618 5620 5621 5622 5623 5624 5625 5626 5627 5627 5628 5628 5628
5595 5594 5593 5592 5591 5591 5590 5590 5589 5588 5587 5587 5588 5588 5589 5589 5590 5591 5592 5594 5595 5597 5599 5600 5602 5604 5605 5606 5608 5609 5610 5611 5613 5614 5615 5616 5617 5618 5618 5619 5620 5620 5620 5620
5592 5590 5589 5588 5587 5587 5586 5585 5584 5583 5582 5582 5582 5583 5584 5584 5585 5586 5587 5588 5590 5591 5593 5594 5596 5597 5599 5600 5601 5603 5604 5605 5606 5606 5607 5608 5609 5610 5611 5611 5612 5612 5612 5612